EW9081 Weather Reports


time (UTC)temp
F
wind
direction
speed
knots
gust
knots
rain 1hr
in
rain 24hr
in
rain mn
in
humidity
%
barometer
mb
20260901184238 65 5 0.9 2.6 0.00 0.00 0.00 70 1011.7
20260901183739 65 5 0.9 2.6 0.00 0.00 0.00 70 1011.8
20260901183243 65 317 0.9 2.6 0.00 0.00 0.00 70 1011.8
20260901183238 65 29 0.9 2.6 0.00 0.00 0.00 70 1011.7
20260901182238 65 318 0.9 2.6 0.00 0.00 0.00 70 1011.7
20260901181737 65 9 0.0 1.7 0.00 0.00 0.00 70 1011.7
20260901181238 65 104 0.9 4.3 0.00 0.00 0.00 71 1011.6
20260901180738 65 82 1.7 4.3 0.00 0.00 0.00 70 1011.6
20260901180239 65 355 0.9 1.7 0.00 0.00 0.00 71 1011.7
20260901175739 65 342 0.9 2.6 0.00 0.00 0.00 71 1011.6
20260901175238 65 0 0.9 2.6 0.00 0.00 0.00 72 1011.6
20260901174736 65 5 0.9 2.6 0.00 0.00 0.00 72 1011.6
20260901174235 65 22 0.9 1.7 0.00 0.00 0.00 73 1011.6
20260901173735 65 20 0.9 2.6 0.00 0.00 0.00 73 1011.6
20260901173236 65 22 0.9 2.6 0.00 0.00 0.00 73 1011.7
20260901172733 64 350 1.7 2.6 0.00 0.00 0.00 73 1011.7
20260901172235 64 344 1.7 3.5 0.00 0.00 0.00 74 1011.7
20260901171738 65 340 1.7 3.5 0.00 0.00 0.00 72 1011.6
20260901171734 65 351 1.7 3.5 0.00 0.00 0.00 73 1011.6
20260901170740 66 261 0.9 2.6 0.00 0.00 0.00 70 1011.6
20260901170735 65 304 1.7 3.5 0.00 0.00 0.00 71 1011.6
20260901165736 66 169 0.9 3.5 0.00 0.00 0.00 70 1011.5
20260901165731 66 201 0.9 3.5 0.00 0.00 0.00 69 1011.6
20260901164736 64 233 0.9 1.7 0.00 0.00 0.00 76 1011.7
20260901164732 65 163 0.9 1.7 0.00 0.00 0.00 73 1011.6
20260901163731 63 235 0.0 1.7 0.00 0.00 0.00 76 1011.7
20260901163230 63 238 0.0 1.7 0.00 0.00 0.00 76 1011.7
20260901162731 63 238 0.9 1.7 0.00 0.00 0.00 77 1011.8
20260901162231 62 240 0.9 1.7 0.00 0.00 0.00 78 1011.9
20260901161730 62 244 0.9 1.7 0.00 0.00 0.00 79 1011.9
20260901161229 62 245 0.9 1.7 0.00 0.00 0.00 80 1011.9
20260901160727 61 262 0.0 2.6 0.00 0.00 0.00 80 1011.9
20260901160227 61 262 0.9 2.6 0.00 0.00 0.00 81 1011.9
20260901155725 61 257 0.9 3.5 0.00 0.00 0.00 82 1011.9
20260901155225 61 294 1.7 3.5 0.00 0.00 0.00 82 1011.9
20260901154727 61 294 0.9 2.6 0.00 0.00 0.00 82 1012.0
20260901154225 61 293 1.7 2.6 0.00 0.00 0.00 82 1011.9
20260901153730 60 300 1.7 3.5 0.00 0.00 0.00 81 1011.9
20260901153726 61 294 1.7 3.5 0.00 0.00 0.00 82 1012.0
20260901153223 60 294 1.7 3.5 0.00 0.00 0.00 82 1011.9
20260901152228 60 248 0.9 1.7 0.00 0.00 0.00 81 1011.9
20260901152224 60 297 0.9 3.5 0.00 0.00 0.00 81 1011.9
20260901151225 60 237 0.9 1.7 0.00 0.00 0.00 81 1011.9
20260901150725 60 237 0.9 1.7 0.00 0.00 0.00 79 1011.9
20260901150223 60 238 0.9 2.6 0.00 0.00 0.00 78 1011.9
20260901145723 60 241 0.9 2.6 0.00 0.00 0.00 78 1011.8
20260901145224 60 185 0.9 1.7 0.00 0.00 0.00 80 1011.8
20260901144724 60 179 0.9 1.7 0.00 0.00 0.00 81 1011.8
20260901144225 60 179 0.9 1.7 0.00 0.00 0.00 81 1011.8
20260901143723 60 179 0.9 1.7 0.00 0.00 0.00 81 1011.8
20260901143225 60 179 0.9 2.6 0.00 0.00 0.00 81 1011.7
20260901142725 59 179 0.9 2.6 0.00 0.00 0.00 81 1011.7
20260901142224 59 177 0.9 2.6 0.00 0.00 0.00 81 1011.6
20260901141725 59 176 0.9 2.6 0.00 0.00 0.00 81 1011.6
20260901141224 59 180 0.9 1.7 0.00 0.00 0.00 81 1011.5
20260901140724 59 180 0.0 1.7 0.00 0.00 0.00 82 1011.6
20260901140224 59 180 0.0 1.7 0.00 0.00 0.00 82 1011.5
20260901135729 59 184 0.9 1.7 0.00 0.00 0.00 82 1011.5
20260901135725 59 184 0.9 1.7 0.00 0.00 0.00 82 1011.5
20260901134724 59 184 0.9 1.7 0.00 0.00 0.00 82 1011.5
20260901134223 58 184 0.9 1.7 0.00 0.00 0.00 82 1011.4
20260901133723 58 184 1.7 2.6 0.00 0.00 0.00 82 1011.3
20260901133225 58 184 0.9 2.6 0.00 0.00 0.00 82 1011.4
20260901132722 58 188 0.9 2.6 0.00 0.00 0.00 82 1011.4
20260901132221 58 188 0.9 2.6 0.00 0.00 0.00 82 1011.4
20260901131722 58 189 0.9 2.6 0.00 0.00 0.00 83 1011.4
20260901131223 58 196 0.9 1.7 0.00 0.00 0.00 82 1011.4
20260901130718 58 196 0.9 1.7 0.00 0.00 0.00 82 1011.4
20260901130223 58 196 0.9 2.6 0.00 0.00 0.00 82 1011.3
20260901130217 58 196 0.9 1.7 0.00 0.00 0.00 82 1011.4
20260901125830 58 196 0.9 2.6 0.00 0.00 0.00 82 1011.3
20260901124718 59 196 0.9 2.6 0.00 0.00 0.00 81 1011.3
20260901124219 59 196 0.9 2.6 0.00 0.00 0.00 81 1011.3
20260901123717 59 234 0.0 2.6 0.00 0.00 0.00 83 1011.2
20260901123217 59 243 0.0 1.7 0.00 0.00 0.00 83 1011.3
20260901122717 59 243 0.0 1.7 0.00 0.00 0.00 83 1011.3
20260901122217 59 244 0.0 1.7 0.00 0.00 0.00 83 1011.2
20260901121718 60 244 0.0 1.7 0.00 0.00 0.00 83 1011.3
20260901121218 60 244 0.0 1.7 0.00 0.00 0.00 83 1011.3
20260901120717 60 226 0.0 1.7 0.00 0.00 0.00 82 1011.3
20260901120219 60 224 0.0 3.5 0.00 0.00 0.00 83 1011.3
20260901115716 60 224 0.0 3.5 0.00 0.00 0.00 82 1011.3
20260901115216 60 251 0.0 1.7 0.00 0.00 0.00 82 1011.3
20260901114715 60 251 0.9 1.7 0.00 0.00 0.00 82 1011.2
20260901114216 60 252 0.9 1.7 0.00 0.00 0.00 82 1011.1
20260901113715 60 252 0.9 2.6 0.00 0.00 0.00 82 1011.2
20260901113220 60 247 0.9 3.5 0.00 0.00 0.00 82 1011.1
20260901113215 60 252 0.9 3.5 0.00 0.00 0.00 82 1011.2
20260901112215 60 252 0.0 2.6 0.00 0.00 0.00 82 1011.1
20260901111715 60 270 0.9 3.5 0.00 0.00 0.00 82 1011.1
20260901111213 60 241 1.7 5.2 0.00 0.00 0.00 81 1011.0
20260901110715 60 217 1.7 5.2 0.00 0.00 0.00 81 1011.0
20260901110215 60 243 0.9 3.5 0.00 0.00 0.00 81 1011.0
20260901105713 60 282 0.9 3.5 0.00 0.00 0.00 81 1010.9
20260901105212 60 237 0.9 3.5 0.00 0.00 0.00 81 1011.0
20260901104712 60 259 0.9 3.5 0.00 0.00 0.00 81 1011.0
20260901104210 60 248 0.9 3.5 0.00 0.00 0.00 80 1011.0
20260901103712 60 248 1.7 5.2 0.00 0.00 0.00 80 1010.9
20260901103212 60 257 2.6 9.6 0.00 0.00 0.00 80 1011.0
20260901102711 60 290 1.7 9.6 0.00 0.00 0.00 81 1011.0
20260901102211 60 247 0.9 4.3 0.00 0.00 0.00 81 1010.9
20260901101711 60 265 1.7 4.3 0.00 0.00 0.00 81 1011.0
20260901101216 60 244 1.7 4.3 0.00 0.00 0.00 81 1011.0
20260901101212 60 275 1.7 4.3 0.00 0.00 0.00 81 1011.0
20260901100210 59 236 1.7 5.2 0.00 0.00 0.00 81 1011.0
20260901095713 60 248 1.7 6.1 0.00 0.00 0.00 82 1010.9
20260901095708 60 258 1.7 5.2 0.00 0.00 0.00 81 1010.9
20260901095323 60 217 1.7 7.0 0.00 0.00 0.00 82 1011.0
20260901094708 60 232 1.7 6.1 0.00 0.00 0.00 82 1011.0
20260901093709 60 198 2.6 7.8 0.00 0.00 0.00 81 1011.0
20260901093209 59 255 2.6 7.8 0.00 0.00 0.00 82 1011.1
20260901092709 59 246 2.6 7.0 0.00 0.00 0.00 82 1011.0
20260901092208 59 312 2.6 7.0 0.00 0.00 0.00 82 1011.0
20260901091710 59 208 1.7 7.0 0.00 0.00 0.00 83 1010.9
20260901091207 59 236 1.7 7.0 0.00 0.00 0.00 83 1010.8
20260901090709 59 250 2.6 7.0 0.00 0.00 0.00 83 1010.8
20260901090207 59 227 2.6 7.0 0.00 0.00 0.00 83 1010.8
20260901085707 59 214 0.9 5.2 0.00 0.00 0.00 83 1010.8
20260901085206 59 248 1.7 6.1 0.00 0.00 0.00 83 1010.7
20260901084704 59 245 1.7 7.0 0.00 0.00 0.00 83 1010.6
20260901084206 59 223 1.7 7.0 0.00 0.00 0.00 83 1010.6
20260901083706 59 238 1.7 5.2 0.00 0.00 0.00 83 1010.6
20260901083205 59 235 1.7 7.8 0.00 0.00 0.00 83 1010.7
20260901082710 59 271 1.7 6.1 0.00 0.00 0.00 83 1010.8
20260901082706 59 284 2.6 7.8 0.00 0.00 0.00 83 1010.7
20260901081706 59 290 0.9 4.3 0.00 0.00 0.00 83 1010.8
20260901081206 59 238 1.7 7.0 0.00 0.00 0.00 83 1010.8
20260901080705 59 238 2.6 7.0 0.00 0.00 0.00 83 1010.8
20260901080203 59 227 2.6 7.0 0.00 0.00 0.00 83 1010.8
20260901075708 59 250 1.7 7.0 0.00 0.00 0.00 83 1010.7
20260901075704 59 250 2.6 7.0 0.00 0.00 0.00 83 1010.7
20260901074702 59 263 1.7 7.8 0.00 0.00 0.00 83 1010.6
20260901074200 59 227 1.7 7.8 0.00 0.00 0.00 83 1010.6
20260901073659 59 262 1.7 7.8 0.00 0.00 0.00 83 1010.6
20260901073200 59 211 2.6 7.8 0.00 0.00 0.00 83 1010.5
20260901072657 59 244 2.6 7.0 0.00 0.00 0.00 83 1010.5
20260901072158 59 221 2.6 6.1 0.00 0.00 0.00 83 1010.5
20260901071657 59 244 2.6 7.0 0.00 0.00 0.00 83 1010.4
20260901071202 59 241 1.7 6.1 0.00 0.00 0.00 83 1010.4
20260901071158 59 225 1.7 7.0 0.00 0.00 0.00 83 1010.5
20260901070155 59 264 2.6 6.1 0.00 0.00 0.00 83 1010.4
20260901065659 59 250 2.6 7.0 0.00 0.00 0.00 83 1010.3
20260901065655 59 225 2.6 7.0 0.00 0.00 0.00 83 1010.3
20260901065309 59 237 2.6 10.4 0.00 0.00 0.00 83 1010.3
20260901064155 59 251 3.5 10.4 0.00 0.00 0.00 83 1010.2
20260901063700 59 261 3.5 11.3 0.00 0.00 0.00 83 1010.1
20260901063656 59 234 4.3 11.3 0.00 0.00 0.00 83 1010.2
20260901062657 59 255 2.6 10.4 0.00 0.00 0.00 83 1010.2
20260901062152 59 243 1.7 7.8 0.00 0.00 0.00 83 1010.1
20260901061655 59 239 1.7 7.0 0.00 0.00 0.00 83 1010.2
20260901061153 59 236 1.7 7.0 0.00 0.00 0.00 83 1010.2
20260901060654 59 226 2.6 7.0 0.00 0.00 0.00 83 1010.2
20260901060153 59 224 2.6 8.7 0.00 0.00 0.00 83 1010.1
20260901055655 59 302 2.6 8.7 0.00 0.00 0.00 83 1010.0
20260901055153 59 229 1.7 6.1 0.00 0.00 0.00 83 1009.9
20260901054653 59 251 1.7 6.1 0.00 0.00 0.00 83 1009.8
20260901054154 59 250 2.6 8.7 0.00 0.00 0.00 83 1009.9
20260901053654 59 254 2.6 8.7 0.00 0.00 0.00 83 1009.9
20260901053152 59 213 2.6 7.0 0.00 0.00 0.00 83 1009.9
20260901052658 59 279 1.7 6.1 0.00 0.00 0.00 83 1009.9
20260901052652 59 261 2.6 7.0 0.00 0.00 0.00 83 1009.8
20260901052152 59 280 2.6 6.1 0.00 0.00 0.00 83 1009.9
20260901051806 59 259 2.6 6.1 0.00 0.00 0.00 83 1010.0
20260901050651 59 284 2.6 7.0 0.00 0.00 0.00 83 1009.8
20260901050151 59 280 1.7 10.4 0.00 0.00 0.00 83 1009.9
20260901045651 59 227 2.6 10.4 0.00 0.00 0.00 83 1009.9
20260901045151 59 252 2.6 10.4 0.00 0.00 0.00 82 1009.9
20260901044651 60 298 3.5 10.4 0.00 0.00 0.00 82 1009.9
20260901044155 60 258 3.5 9.6 0.00 0.00 0.00 82 1009.9
20260901044149 60 237 3.5 7.8 0.00 0.00 0.00 82 1009.9
20260901043149 60 242 3.5 9.6 0.00 0.00 0.00 82 1009.9
20260901042649 60 249 2.6 6.1 0.00 0.00 0.00 81 1009.9
20260901042149 60 260 2.6 7.0 0.00 0.00 0.00 81 1009.8
20260901041650 60 259 2.6 10.4 0.00 0.00 0.00 81 1009.8
20260901041149 60 267 3.5 10.4 0.00 0.00 0.00 80 1009.8
20260901040650 60 254 3.5 8.7 0.00 0.00 0.00 80 1009.8
20260901040149 60 244 3.5 11.3 0.00 0.00 0.00 80 1009.7
20260901035649 60 300 3.5 12.2 0.00 0.00 0.00 80 1009.7
20260901035146 60 296 3.5 12.2 0.00 0.00 0.00 79 1009.5
20260901034650 60 236 3.5 11.3 0.00 0.00 0.00 79 1009.6
20260901034645 60 329 5.2 12.2 0.00 0.00 0.00 79 1009.5
20260901033645 61 280 4.3 12.2 0.00 0.00 0.00 79 1009.5
20260901033144 61 286 3.5 11.3 0.00 0.00 0.00 78 1009.4
20260901032643 61 252 3.5 8.7 0.00 0.00 0.00 77 1009.4
20260901032142 62 261 3.5 9.6 0.00 0.00 0.00 76 1009.2
20260901031643 62 221 3.5 11.3 0.00 0.00 0.00 76 1009.1
20260901031144 62 298 4.3 11.3 0.00 0.00 0.00 74 1009.0
20260901030642 63 286 4.3 10.4 0.00 0.00 0.00 74 1009.0
20260901030141 63 206 3.5 9.6 0.00 0.00 0.00 72 1008.9
20260901025641 64 219 3.5 9.6 0.00 0.00 0.00 71 1008.8
20260901025141 64 188 5.2 12.2 0.00 0.00 0.00 70 1008.7
20260901024641 64 209 6.1 13.0 0.00 0.00 0.00 70 1008.7
20260901024141 65 222 4.3 13.0 0.00 0.00 0.00 69 1008.5
20260901023640 65 219 4.3 10.4 0.00 0.00 0.00 68 1008.5
20260901023146 66 229 4.3 10.4 0.00 0.00 0.00 67 1008.3
20260901023142 65 228 4.3 10.4 0.00 0.00 0.00 67 1008.3
20260901022141 66 252 5.2 12.2 0.00 0.00 0.00 66 1008.2
20260901021641 67 263 4.3 12.2 0.00 0.00 0.00 65 1008.1
20260901021141 68 236 4.3 14.8 0.00 0.00 0.00 63 1008.1
20260901020640 68 248 4.3 14.8 0.00 0.00 0.00 61 1008.1
20260901020141 69 232 3.5 10.4 0.00 0.00 0.00 59 1008.1
20260901015640 69 185 3.5 10.4 0.00 0.00 0.00 58 1008.0
20260901015141 70 279 2.6 10.4 0.00 0.00 0.00 57 1008.0
20260901014639 70 292 3.5 10.4 0.00 0.00 0.00 57 1007.9
20260901014136 71 288 3.5 10.4 0.00 0.00 0.00 56 1008.0
20260901013636 71 275 3.5 10.4 0.00 0.00 0.00 55 1007.8
20260901013138 71 281 3.5 7.8 0.00 0.00 0.00 54 1008.0
20260901012638 72 321 4.3 11.3 0.00 0.00 0.00 53 1007.9
20260901012136 72 315 4.3 11.3 0.00 0.00 0.00 51 1008.0
20260901011638 73 268 4.3 12.2 0.00 0.00 0.00 50 1007.9
20260901011136 73 247 4.3 12.2 0.00 0.00 0.00 49 1008.1
20260901010640 75 0 3.5 8.7 0.00 0.00 0.00 48 1008.1
20260901010636 74 209 4.3 8.7 0.00 0.00 0.00 49 1008.1
20260901010251 75 256 3.5 8.7 0.00 0.00 0.00 48 1007.9
20260901005136 75 340 3.5 10.4 0.00 0.00 0.00 48 1008.0
20260901004637 76 280 3.5 10.4 0.00 0.00 0.00 47 1008.0
20260901004137 76 304 3.5 10.4 0.00 0.00 0.00 47 1007.9
20260901003638 77 189 4.3 10.4 0.00 0.00 0.00 47 1007.9
20260901003137 77 302 4.3 11.3 0.00 0.00 0.00 47 1007.8
20260901002636 78 205 3.5 11.3 0.00 0.00 0.00 45 1007.8
20260901002136 78 277 4.3 10.4 0.00 0.00 0.00 46 1007.8
20260901001642 79 300 4.3 12.2 0.00 0.00 0.00 45 1007.8
20260901001638 78 244 4.3 10.4 0.00 0.00 0.00 45 1007.8
20260901000642 79 324 5.2 12.2 0.00 0.00 0.00 45 1007.7
20260901000637 79 257 4.3 12.2 0.00 0.00 0.00 45 1007.7
20260831235637 80 274 5.2 12.2 0.00 0.00 0.00 44 1007.6
20260831235140 82 286 3.5 10.4 0.00 0.00 0.00 43 1007.5
20260831235136 81 275 4.3 10.4 0.00 0.00 0.00 43 1007.5
20260831234137 82 227 3.5 10.4 0.00 0.00 0.00 44 1007.4
20260831233635 82 313 3.5 8.7 0.00 0.00 0.00 44 1007.5
20260831233138 81 262 3.5 8.7 0.00 0.00 0.00 44 1007.5
20260831233134 81 270 4.3 8.7 0.00 0.00 0.00 44 1007.4
20260831232747 81 333 2.6 8.7 0.00 0.00 0.00 44 1007.5
20260831232134 81 271 3.5 11.3 0.00 0.00 0.00 44 1007.6
20260831231132 82 263 3.5 11.3 0.00 0.00 0.00 42 1007.6
20260831230632 83 192 2.6 8.7 0.00 0.00 0.00 41 1007.5
20260831230132 84 299 2.6 7.8 0.00 0.00 0.00 40 1007.5
20260831225630 84 244 2.6 7.8 0.00 0.00 0.00 41 1007.5
20260831225131 84 258 2.6 9.6 0.00 0.00 0.00 41 1007.5
20260831224631 84 303 3.5 9.6 0.00 0.00 0.00 41 1007.5
20260831224128 85 250 2.6 7.0 0.00 0.00 0.00 40 1007.5
20260831223628 85 242 2.6 7.0 0.00 0.00 0.00 40 1007.5
20260831223127 85 231 3.5 7.0 0.00 0.00 0.00 41 1007.4
20260831222626 85 288 3.5 10.4 0.00 0.00 0.00 40 1007.5
20260831222126 85 252 3.5 10.4 0.00 0.00 0.00 40 1007.5
20260831221626 85 301 2.6 7.8 0.00 0.00 0.00 39 1007.5
20260831221124 85 303 0.9 4.3 0.00 0.00 0.00 35 1007.5
20260831220625 85 184 0.9 3.5 0.00 0.00 0.00 37 1007.5
20260831220126 84 206 0.9 3.5 0.00 0.00 0.00 36 1007.7
20260831220122 84 253 1.7 3.5 0.00 0.00 0.00 35 1007.7
20260831215733 84 69 1.7 3.5 0.00 0.00 0.00 37 1007.9
20260831215119 84 336 0.9 3.5 0.00 0.00 0.00 36 1007.7
20260831214738 83 93 1.7 6.1 0.00 0.00 0.00 38 1007.9
20260831214733 83 167 1.7 3.5 0.00 0.00 0.00 37 1007.9
20260831213120 82 184 1.7 6.1 0.00 0.00 0.00 39 1008.0
20260831212619 82 178 0.9 6.1 0.00 0.00 0.00 39 1008.0
20260831212118 82 238 1.7 6.1 0.00 0.00 0.00 38 1008.1
20260831211618 81 165 1.7 6.1 0.00 0.00 0.00 39 1008.1
20260831211120 82 84 2.6 5.2 0.00 0.00 0.00 39 1008.2
20260831210619 82 0 1.7 5.2 0.00 0.00 0.00 39 1008.2
20260831210122 81 170 0.9 3.5 0.00 0.00 0.00 39 1008.3
20260831210116 82 42 0.9 3.5 0.00 0.00 0.00 40 1008.2
20260831205729 81 175 1.7 3.5 0.00 0.00 0.00 40 1008.4
20260831205231 81 146 1.7 4.3 0.00 0.00 0.00 40 1008.4
20260831204116 81 191 1.7 4.3 0.00 0.00 0.00 39 1008.4
20260831203617 81 134 0.9 4.3 0.00 0.00 0.00 40 1008.5
20260831203120 80 163 1.7 3.5 0.00 0.00 0.00 41 1008.6
20260831203116 81 162 0.9 3.5 0.00 0.00 0.00 40 1008.6
20260831202116 80 174 1.7 3.5 0.00 0.00 0.00 41 1008.7
20260831201616 80 103 1.7 3.5 0.00 0.00 0.00 42 1008.8
20260831201114 80 79 0.9 3.5 0.00 0.00 0.00 42 1008.9
20260831200614 79 157 0.9 3.5 0.00 0.00 0.00 41 1009.0
20260831200114 79 22 1.7 4.3 0.00 0.00 0.00 43 1009.0
20260831195614 78 15 0.9 4.3 0.00 0.00 0.00 42 1009.1
20260831195119 78 81 0.9 4.3 0.00 0.00 0.00 42 1009.2
20260831195115 78 117 0.9 4.3 0.00 0.00 0.00 43 1009.2
20260831194114 78 355 1.7 4.3 0.00 0.00 0.00 44 1009.3
20260831193614 77 194 1.7 6.1 0.00 0.00 0.00 44 1009.4
20260831193114 77 175 1.7 6.1 0.00 0.00 0.00 44 1009.4
20260831192613 76 105 1.7 4.3 0.00 0.00 0.00 46 1009.5
20260831192112 76 232 1.7 4.3 0.00 0.00 0.00 45 1009.6
20260831191612 76 227 1.7 5.2 0.00 0.00 0.00 45 1009.7
20260831191112 76 334 0.9 5.2 0.00 0.00 0.00 45 1009.7
20260831190611 76 355 0.9 5.2 0.00 0.00 0.00 45 1009.7
20260831190112 76 74 1.7 5.2 0.00 0.00 0.00 45 1009.9
20260831185614 76 178 1.7 4.3 0.00 0.00 0.00 46 1009.9
20260831185112 76 178 0.9 3.5 0.00 0.00 0.00 46 1009.9
20260831184612 76 179 0.9 2.6 0.00 0.00 0.00 46 1009.9